contact:dominique.lefevre@mio.osupytheas.fr, maurice.libes@osupytheas.fr, didier.mallarino@osupytheas.fr
Project:EMSO http://www.emso-fr.org/EMSO-France
Depth: 2436.0 m
Title:EMSO Ligure Ouest : Data MII capteur AQUADOPP
Date,Latitude,Longitude,X_East,Y_North,Z_Up,Amplitude_X,Amplitude_Y,Amplitude_Z,Batterie,SoundSpeed,Heading,Pitch,Roll,Pressure,TIS,Speed,Direction
, degrees North, degrees East, m.s-1, m.s-1,m.s-1, 1, 1, 1, Volt, m.s-1, degree, degree, degree, dbar, degree_C, m.s-1, degree
2021-01-08T00:04:03,42.805,6.029,-0.018,0.001,-0.013,106.0,108.0,102.0,13.3,1505.3,324.3,-0.7,1.8,2470.439,13.31,0.018,273.2
2021-01-08T00:07:03,42.805,6.029,-0.016,0.006,0.001,106.0,109.0,102.0,13.4,1505.3,328.0,-0.7,1.8,2470.43,13.32,0.017,290.6
2021-01-08T00:10:03,42.805,6.029,-0.022,0.012,-0.023,104.0,109.0,102.0,13.4,1505.3,327.8,-0.7,1.8,2470.44,13.33,0.025,298.6
2021-01-08T00:13:03,42.805,6.029,-0.018,-0.015,0.002,105.0,108.0,102.0,13.4,1505.3,325.2,-0.7,1.8,2470.412,13.33,0.023,230.2
2021-01-08T00:16:03,42.805,6.029,-0.022,0.007,-0.039,105.0,107.0,102.0,13.4,1505.3,323.4,-0.8,1.8,2470.423,13.33,0.023,287.6
2021-01-08T00:22:03,42.805,6.029,-0.021,0.014,0.012,106.0,109.0,103.0,13.4,1505.3,324.0,-0.7,1.8,2470.449,13.31,0.025,303.7
2021-01-08T00:25:03,42.805,6.029,-0.011,-0.009,0.001,105.0,108.0,102.0,13.3,1505.3,326.3,-0.7,1.8,2470.452,13.32,0.014,230.7
2021-01-08T00:28:03,42.805,6.029,-0.011,0.003,-0.009,106.0,109.0,102.0,13.3,1505.3,328.3,-0.7,1.8,2470.467,13.32,0.011,285.3
2021-01-08T00:31:03,42.805,6.029,-0.012,0.017,0.049,105.0,108.0,102.0,13.4,1505.3,326.6,-0.7,1.8,2470.441,13.33,0.02,324.8
2021-01-08T00:34:03,42.805,6.029,-0.014,0.006,-0.026,104.0,108.0,102.0,13.3,1505.3,323.1,-0.7,1.8,2470.477,13.33,0.015,293.2
2021-01-08T00:37:03,42.805,6.029,0.002,0.002,0.01,105.0,108.0,103.0,13.4,1505.3,323.3,-0.7,1.8,2470.458,13.33,0.002,45.0
2021-01-08T00:40:03,42.805,6.029,-0.046,0.003,-0.02,105.0,109.0,102.0,13.3,1505.3,324.5,-0.7,1.8,2470.444,13.33,0.046,273.7
2021-01-08T00:43:03,42.805,6.029,-0.002,-0.011,0.007,105.0,108.0,102.0,13.4,1505.3,325.4,-0.7,1.8,2470.446,13.33,0.011,190.3
2021-01-08T00:46:03,42.805,6.029,-0.035,-0.001,-0.004,106.0,108.0,103.0,13.4,1505.3,326.1,-0.7,1.8,2470.389,13.33,0.035,268.4
2021-01-08T00:49:03,42.805,6.029,-0.007,0.008,0.004,105.0,109.0,102.0,13.4,1505.3,325.5,-0.7,1.8,2470.421,13.33,0.01,318.8
2021-01-08T00:52:03,42.805,6.029,0.001,-0.005,0.033,105.0,108.0,102.0,13.3,1505.3,325.7,-0.7,1.8,2470.43,13.33,0.005,168.7
2021-01-08T00:55:03,42.805,6.029,-0.019,0.014,0.0,107.0,108.0,102.0,13.4,1505.3,325.8,-0.7,1.8,2470.477,13.33,0.023,306.4
2021-01-08T00:58:03,42.805,6.029,-0.002,0.005,0.029,106.0,108.0,103.0,13.3,1505.3,326.0,-0.7,1.8,2470.401,13.33,0.005,338.2
2021-01-08T01:04:03,42.805,6.029,-0.012,0.011,0.029,106.0,109.0,103.0,13.4,1505.3,325.6,-0.8,1.8,2470.457,13.31,0.016,312.5
2021-01-08T01:07:03,42.805,6.029,-0.014,0.006,0.001,105.0,109.0,102.0,13.3,1505.3,326.3,-0.7,1.8,2470.446,13.32,0.015,293.2
2021-01-08T01:10:03,42.805,6.029,-0.028,-0.004,0.017,107.0,109.0,103.0,13.3,1505.3,326.9,-0.7,1.8,2470.487,13.32,0.028,261.9
2021-01-08T01:13:03,42.805,6.029,-0.012,0.001,-0.015,105.0,108.0,104.0,13.4,1505.3,326.8,-0.7,1.9,2470.491,13.33,0.012,274.8
2021-01-08T01:16:03,42.805,6.029,-0.024,0.013,0.021,106.0,109.0,103.0,13.4,1505.3,323.4,-0.7,1.8,2470.422,13.33,0.027,298.4
2021-01-08T01:19:03,42.805,6.029,-0.012,0.032,0.005,106.0,108.0,103.0,13.4,1505.3,327.5,-0.7,1.8,2470.447,13.33,0.034,339.4
2021-01-08T01:22:03,42.805,6.029,-0.012,0.022,0.009,106.0,109.0,103.0,13.4,1505.3,324.4,-0.7,1.8,2470.413,13.33,0.025,331.4
2021-01-08T01:25:03,42.805,6.029,-0.043,0.005,0.004,106.0,109.0,103.0,13.4,1505.3,324.6,-0.7,1.8,2470.465,13.33,0.043,276.6
2021-01-08T01:28:03,42.805,6.029,-0.04,-0.01,0.0,106.0,109.0,102.0,13.4,1505.3,323.8,-0.7,1.8,2470.435,13.33,0.041,256.0
2021-01-08T01:31:03,42.805,6.029,-0.022,0.005,0.006,106.0,109.0,103.0,13.4,1505.3,325.5,-0.7,1.8,2470.441,13.33,0.022,282.8
2021-01-08T01:34:03,42.805,6.029,-0.031,0.012,0.0,105.0,110.0,102.0,13.4,1505.3,324.8,-0.7,1.9,2470.45,13.33,0.033,291.2
2021-01-08T01:37:03,42.805,6.029,-0.03,0.02,0.022,106.0,109.0,102.0,13.4,1505.3,326.2,-0.7,1.8,2470.421,13.33,0.036,303.7
2021-01-08T01:40:03,42.805,6.029,-0.017,0.016,0.024,105.0,110.0,103.0,13.3,1505.3,326.0,-0.7,1.8,2470.467,13.33,0.023,313.3
2021-01-08T01:43:03,42.805,6.029,-0.073,-0.007,-0.011,107.0,110.0,103.0,13.4,1505.3,327.0,-0.7,1.9,2470.426,13.33,0.073,264.5
2021-01-08T01:46:03,42.805,6.029,-0.021,0.006,-0.013,106.0,110.0,104.0,13.3,1505.3,326.5,-0.7,1.8,2470.435,13.33,0.021,285.9
2021-01-08T01:49:03,42.805,6.029,-0.037,0.004,-0.016,107.0,109.0,102.0,13.3,1505.3,326.8,-0.7,1.8,2470.43,13.33,0.037,276.2
2021-01-08T01:52:03,42.805,6.029,-0.05,-0.002,-0.033,107.0,110.0,103.0,13.3,1505.3,323.4,-0.7,1.8,2470.445,13.33,0.05,267.7
2021-01-08T01:55:03,42.805,6.029,-0.02,0.018,0.01,106.0,110.0,103.0,13.4,1505.3,325.8,-0.7,1.8,2470.454,13.33,0.026,312.0
2021-01-08T01:58:03,42.805,6.029,-0.013,0.006,-0.008,107.0,110.0,101.0,13.4,1505.3,324.3,-0.7,1.8,2470.442,13.33,0.014,294.8
2021-01-08T02:04:03,42.805,6.029,-0.007,0.019,0.039,106.0,108.0,103.0,13.4,1505.3,327.2,-0.7,1.8,2470.482,13.31,0.02,339.8
2021-01-08T02:07:03,42.805,6.029,-0.032,0.023,0.014,107.0,110.0,103.0,13.4,1505.3,325.1,-0.7,1.9,2470.494,13.32,0.039,305.7
2021-01-08T02:10:03,42.805,6.029,-0.037,0.007,0.009,106.0,108.0,104.0,13.4,1505.3,326.3,-0.7,1.8,2470.487,13.32,0.037,280.7
2021-01-08T02:13:03,42.805,6.029,-0.043,-0.005,0.01,106.0,108.0,103.0,13.3,1505.3,326.5,-0.7,1.8,2470.46,13.32,0.043,263.4
2021-01-08T02:16:03,42.805,6.029,-0.036,0.007,-0.022,105.0,109.0,104.0,13.4,1505.3,325.9,-0.7,1.8,2470.466,13.32,0.036,281.0
2021-01-08T02:19:03,42.805,6.029,-0.026,0.005,0.01,108.0,109.0,104.0,13.3,1505.3,323.8,-0.7,1.8,2470.488,13.33,0.026,280.9
2021-01-08T02:22:03,42.805,6.029,-0.038,0.023,0.026,108.0,109.0,104.0,13.4,1505.3,324.7,-0.7,1.8,2470.474,13.33,0.044,301.2
2021-01-08T02:25:03,42.805,6.029,-0.007,0.005,0.008,106.0,109.0,103.0,13.3,1505.3,324.3,-0.7,1.9,2470.484,13.33,0.008,305.5
2021-01-08T02:28:03,42.805,6.029,-0.053,0.019,-0.011,107.0,108.0,104.0,13.3,1505.3,327.9,-0.7,1.8,2470.446,13.33,0.056,289.7
2021-01-08T02:31:03,42.805,6.029,-0.021,0.008,-0.017,106.0,108.0,103.0,13.4,1505.3,325.0,-0.7,1.8,2470.439,13.33,0.022,290.9
2021-01-08T02:34:03,42.805,6.029,-0.036,0.017,0.006,107.0,110.0,104.0,13.4,1505.3,326.0,-0.7,1.8,2470.402,13.33,0.039,295.3
2021-01-08T02:37:03,42.805,6.029,-0.009,0.011,-0.023,106.0,109.0,103.0,13.3,1505.3,323.0,-0.7,1.8,2470.455,13.33,0.014,320.7
2021-01-08T02:40:03,42.805,6.029,-0.012,0.011,0.008,106.0,111.0,104.0,13.3,1505.3,328.1,-0.7,1.8,2470.445,13.33,0.016,312.5
2021-01-08T02:43:03,42.805,6.029,-0.008,-0.003,0.015,106.0,110.0,104.0,13.3,1505.3,325.3,-0.7,1.8,2470.435,13.33,0.008,249.4
2021-01-08T02:46:03,42.805,6.029,-0.028,0.003,-0.011,107.0,109.0,103.0,13.4,1505.3,327.5,-0.7,1.8,2470.446,13.33,0.028,276.1
2021-01-08T02:49:03,42.805,6.029,-0.009,-0.015,0.017,106.0,108.0,104.0,13.4,1505.3,327.1,-0.7,1.8,2470.429,13.33,0.017,211.0
2021-01-08T02:52:03,42.805,6.029,-0.006,0.012,-0.001,107.0,109.0,104.0,13.4,1505.3,324.6,-0.7,1.8,2470.444,13.33,0.013,333.4
2021-01-08T02:55:03,42.805,6.029,-0.018,0.024,0.007,106.0,111.0,104.0,13.4,1505.3,324.2,-0.7,1.8,2470.447,13.33,0.03,323.1
2021-01-08T02:58:03,42.805,6.029,-0.015,0.021,0.015,107.0,110.0,103.0,13.4,1505.3,325.1,-0.7,1.8,2470.475,13.33,0.025,324.5
2021-01-08T03:04:03,42.805,6.029,-0.007,0.0,0.024,107.0,109.0,103.0,13.3,1505.3,326.5,-0.7,1.8,2470.492,13.31,0.007,270.0
2021-01-08T03:07:03,42.805,6.029,-0.022,0.005,-0.012,107.0,110.0,104.0,13.4,1505.3,326.0,-0.7,1.8,2470.453,13.32,0.022,282.8
2021-01-08T03:10:03,42.805,6.029,-0.037,-0.001,0.01,108.0,110.0,104.0,13.4,1505.3,323.2,-0.7,1.8,2470.483,13.32,0.037,268.5
2021-01-08T03:13:03,42.805,6.029,-0.01,0.021,0.009,107.0,109.0,104.0,13.4,1505.3,323.0,-0.7,1.8,2470.462,13.33,0.023,334.5
2021-01-08T03:16:03,42.805,6.029,-0.017,0.003,0.019,108.0,110.0,103.0,13.4,1505.3,327.8,-0.7,1.8,2470.442,13.33,0.017,280.0
2021-01-08T03:19:03,42.805,6.029,0.003,0.005,0.037,107.0,110.0,104.0,13.4,1505.3,326.3,-0.7,1.8,2470.459,13.33,0.005,31.0
2021-01-08T03:22:03,42.805,6.029,-0.021,-0.01,0.008,105.0,110.0,102.0,13.4,1505.3,323.1,-0.7,1.8,2470.447,13.33,0.023,244.5
2021-01-08T03:25:03,42.805,6.029,-0.017,0.005,0.004,105.0,110.0,102.0,13.4,1505.3,326.2,-0.7,1.8,2470.475,13.33,0.017,286.4
2021-01-08T03:28:03,42.805,6.029,-0.023,0.008,-0.01,106.0,110.0,102.0,13.4,1505.3,325.7,-0.7,1.8,2470.463,13.33,0.024,289.2
2021-01-08T03:31:03,42.805,6.029,-0.023,-0.001,-0.012,105.0,109.0,102.0,13.4,1505.3,324.5,-0.7,1.8,2470.448,13.33,0.023,267.5
2021-01-08T03:34:03,42.805,6.029,-0.013,-0.008,-0.019,105.0,109.0,102.0,13.4,1505.3,327.9,-0.7,1.9,2470.447,13.33,0.015,238.4
2021-01-08T03:37:03,42.805,6.029,-0.012,0.013,-0.01,105.0,109.0,103.0,13.4,1505.4,323.1,-0.7,1.8,2470.411,13.34,0.017,317.3
2021-01-08T03:40:03,42.805,6.029,-0.028,-0.004,-0.023,104.0,108.0,104.0,13.4,1505.4,325.6,-0.7,1.8,2470.442,13.34,0.028,261.9
2021-01-08T03:43:03,42.805,6.029,-0.005,-0.001,0.018,104.0,108.0,102.0,13.4,1505.4,324.1,-0.7,1.8,2470.427,13.34,0.005,258.7
2021-01-08T03:46:03,42.805,6.029,-0.01,0.026,-0.012,105.0,108.0,101.0,13.4,1505.4,325.5,-0.7,1.9,2470.451,13.34,0.027,339.0
2021-01-08T03:49:03,42.805,6.029,-0.003,0.009,-0.005,106.0,109.0,103.0,13.3,1505.4,327.3,-0.7,1.8,2470.446,13.34,0.009,341.6
2021-01-08T03:52:03,42.805,6.029,-0.016,0.012,-0.02,107.0,108.0,102.0,13.3,1505.4,325.4,-0.7,1.8,2470.5,13.34,0.02,306.9
2021-01-08T03:55:03,42.805,6.029,0.011,-0.011,0.025,104.0,108.0,101.0,13.4,1505.4,325.7,-0.7,1.8,2470.449,13.34,0.015,135.0
2021-01-08T03:58:03,42.805,6.029,-0.027,0.0,0.015,106.0,108.0,102.0,13.4,1505.4,326.8,-0.7,1.8,2470.434,13.34,0.026,270.0
2021-01-08T04:04:03,42.805,6.029,-0.004,0.002,-0.017,106.0,108.0,101.0,13.4,1505.3,325.2,-0.7,1.8,2470.434,13.32,0.004,296.6
2021-01-08T04:07:03,42.805,6.029,-0.011,0.014,0.001,104.0,108.0,102.0,13.4,1505.3,326.4,-0.7,1.8,2470.472,13.32,0.017,321.8
2021-01-08T04:10:03,42.805,6.029,-0.012,-0.001,-0.016,104.0,108.0,100.0,13.3,1505.3,326.5,-0.7,1.8,2470.51,13.33,0.012,265.2
2021-01-08T04:13:03,42.805,6.029,0.022,0.002,0.033,105.0,106.0,101.0,13.4,1505.3,326.4,-0.7,1.8,2470.414,13.33,0.022,84.8
2021-01-08T04:16:03,42.805,6.029,-0.008,0.003,0.018,104.0,107.0,101.0,13.4,1505.3,327.0,-0.6,1.8,2470.462,13.33,0.008,290.6
2021-01-08T04:19:03,42.805,6.029,0.0,0.01,0.019,105.0,108.0,101.0,13.4,1505.3,326.5,-0.7,1.8,2470.447,13.33,0.01,0.0
2021-01-08T04:22:03,42.805,6.029,-0.003,-0.001,0.0,105.0,108.0,102.0,13.4,1505.3,325.7,-0.7,1.8,2470.452,13.33,0.003,251.6
2021-01-08T04:25:03,42.805,6.029,-0.006,-0.012,0.017,105.0,108.0,101.0,13.4,1505.3,326.4,-0.7,1.8,2470.459,13.33,0.013,206.6
2021-01-08T04:28:03,42.805,6.029,-0.025,0.009,0.01,104.0,108.0,102.0,13.4,1505.4,325.1,-0.7,1.8,2470.416,13.34,0.026,289.8
2021-01-08T04:31:03,42.805,6.029,-0.014,-0.018,0.008,104.0,108.0,102.0,13.4,1505.4,323.0,-0.7,1.8,2470.443,13.34,0.022,217.9
2021-01-08T04:34:03,42.805,6.029,-0.027,0.0,0.012,103.0,107.0,101.0,13.3,1505.4,327.3,-0.7,1.8,2470.453,13.34,0.026,270.0
2021-01-08T04:37:03,42.805,6.029,0.002,0.001,0.014,105.0,107.0,100.0,13.4,1505.4,324.3,-0.7,1.8,2470.454,13.34,0.002,63.4
2021-01-08T04:40:03,42.805,6.029,-0.02,-0.006,0.0,104.0,108.0,100.0,13.4,1505.4,325.4,-0.7,1.8,2470.435,13.34,0.02,253.3
2021-01-08T04:43:03,42.805,6.029,-0.016,-0.001,-0.012,105.0,108.0,101.0,13.4,1505.4,324.5,-0.7,1.8,2470.421,13.34,0.016,266.4
2021-01-08T04:46:03,42.805,6.029,-0.002,-0.008,0.004,105.0,108.0,101.0,13.3,1505.4,323.2,-0.7,1.8,2470.406,13.34,0.008,194.0
2021-01-08T04:49:03,42.805,6.029,-0.031,0.014,0.008,104.0,108.0,102.0,13.3,1505.4,327.4,-0.7,1.8,2470.436,13.34,0.034,294.3
2021-01-08T04:52:03,42.805,6.029,-0.027,0.005,-0.005,104.0,108.0,101.0,13.3,1505.4,327.5,-0.7,1.8,2470.423,13.34,0.027,280.5
2021-01-08T04:55:03,42.805,6.029,-0.012,0.021,0.004,105.0,106.0,102.0,13.4,1505.4,328.0,-0.7,1.8,2470.409,13.34,0.024,330.3
2021-01-08T04:58:03,42.805,6.029,0.006,-0.005,0.006,103.0,108.0,101.0,13.4,1505.3,323.4,-0.7,1.8,2470.415,13.33,0.007,129.8
2021-01-08T05:04:03,42.805,6.029,-0.027,0.001,0.007,104.0,109.0,101.0,13.4,1505.3,325.0,-0.7,1.8,2470.485,13.32,0.027,272.1
2021-01-08T05:07:03,42.805,6.029,-0.018,-0.013,0.006,105.0,109.0,102.0,13.4,1505.3,323.0,-0.7,1.8,2470.412,13.32,0.022,234.2
2021-01-08T05:10:03,42.805,6.029,0.0,0.007,0.003,105.0,108.0,102.0,13.3,1505.3,323.2,-0.7,1.8,2470.454,13.33,0.007,0.0
2021-01-08T05:13:03,42.805,6.029,-0.004,0.032,0.02,104.0,110.0,101.0,13.4,1505.3,326.7,-0.7,1.9,2470.464,13.33,0.032,352.9
2021-01-08T05:19:03,42.805,6.029,-0.029,0.01,-0.006,104.0,108.0,101.0,13.4,1505.3,325.5,-0.7,1.8,2470.474,13.31,0.03,289.0
2021-01-08T05:22:03,42.805,6.029,-0.016,-0.001,0.05,105.0,110.0,103.0,13.4,1505.3,328.1,-0.7,1.8,2470.435,13.32,0.016,266.4
2021-01-08T05:25:03,42.805,6.029,-0.018,0.005,-0.003,105.0,109.0,103.0,13.4,1505.3,326.4,-0.7,1.8,2470.475,13.32,0.018,285.5
2021-01-08T05:28:03,42.805,6.029,-0.035,-0.002,-0.008,105.0,108.0,103.0,13.4,1505.3,325.7,-0.7,1.8,2470.439,13.33,0.035,266.7
2021-01-08T05:31:03,42.805,6.029,-0.023,0.002,0.009,104.0,109.0,103.0,13.3,1505.3,326.7,-0.7,1.9,2470.457,13.33,0.023,275.0
2021-01-08T05:34:03,42.805,6.029,-0.035,0.021,0.015,105.0,108.0,102.0,13.3,1505.3,324.0,-0.7,1.8,2470.46,13.33,0.04,301.0
2021-01-08T05:37:03,42.805,6.029,-0.021,0.007,0.0,106.0,109.0,103.0,13.3,1505.3,325.2,-0.7,1.9,2470.469,13.33,0.022,288.4
2021-01-08T05:40:03,42.805,6.029,-0.024,0.015,-0.018,105.0,109.0,102.0,13.4,1505.3,324.4,-0.7,1.8,2470.455,13.33,0.028,302.0
2021-01-08T05:43:03,42.805,6.029,-0.011,0.011,0.026,105.0,110.0,103.0,13.4,1505.3,324.5,-0.7,1.8,2470.486,13.33,0.015,315.0
2021-01-08T05:46:03,42.805,6.029,0.0,0.007,-0.005,106.0,111.0,101.0,13.4,1505.3,325.0,-0.7,1.8,2470.463,13.33,0.007,0.0
2021-01-08T05:49:03,42.805,6.029,-0.003,0.011,0.02,105.0,110.0,102.0,13.4,1505.3,326.1,-0.7,1.9,2470.416,13.33,0.011,344.7
2021-01-08T05:52:03,42.805,6.029,-0.005,0.008,0.023,105.0,110.0,103.0,13.4,1505.3,323.4,-0.7,1.8,2470.426,13.33,0.009,328.0
2021-01-08T05:55:03,42.805,6.029,-0.022,0.002,-0.02,106.0,109.0,103.0,13.3,1505.3,326.2,-0.7,1.8,2470.402,13.33,0.022,275.2
2021-01-08T05:58:03,42.805,6.029,-0.02,0.01,0.014,106.0,110.0,103.0,13.4,1505.3,324.4,-0.7,1.8,2470.436,13.33,0.022,296.6
2021-01-08T06:04:03,42.805,6.029,-0.035,0.01,0.01,104.0,109.0,101.0,13.3,1505.3,324.7,-0.7,1.8,2470.455,13.32,0.036,285.9
2021-01-08T06:07:03,42.805,6.029,-0.009,0.003,-0.02,105.0,109.0,103.0,13.4,1505.3,325.6,-0.7,1.8,2470.432,13.32,0.009,288.4
2021-01-08T06:10:03,42.805,6.029,-0.013,0.003,0.015,105.0,108.0,102.0,13.4,1505.3,325.3,-0.7,1.8,2470.424,13.33,0.013,283.0
2021-01-08T06:13:03,42.805,6.029,-0.002,0.018,0.006,105.0,109.0,102.0,13.4,1505.3,325.2,-0.7,1.8,2470.422,13.33,0.018,353.7
2021-01-08T06:16:03,42.805,6.029,-0.004,0.007,0.02,105.0,111.0,103.0,13.4,1505.3,326.2,-0.7,1.8,2470.424,13.33,0.008,330.3
2021-01-08T06:19:03,42.805,6.029,-0.022,0.022,-0.006,105.0,109.0,103.0,13.4,1505.3,324.7,-0.7,1.8,2470.403,13.33,0.031,315.0
2021-01-08T06:22:03,42.805,6.029,-0.01,0.001,-0.005,107.0,110.0,102.0,13.4,1505.3,325.1,-0.7,1.8,2470.409,13.33,0.01,275.7
2021-01-08T06:25:03,42.805,6.029,-0.019,0.001,0.0,104.0,110.0,104.0,13.4,1505.3,326.5,-0.7,1.9,2470.389,13.33,0.019,273.0
2021-01-08T06:28:03,42.805,6.029,-0.013,0.003,0.006,106.0,109.0,103.0,13.4,1505.3,327.5,-0.7,1.9,2470.411,13.33,0.013,283.0
2021-01-08T06:31:03,42.805,6.029,-0.006,0.004,-0.014,106.0,110.0,102.0,13.3,1505.3,327.9,-0.7,1.8,2470.37,13.33,0.007,303.7
2021-01-08T06:34:03,42.805,6.029,-0.011,0.014,0.023,107.0,110.0,103.0,13.4,1505.3,325.4,-0.7,1.8,2470.396,13.33,0.017,321.8
2021-01-08T06:37:03,42.805,6.029,-0.013,-0.012,0.023,107.0,110.0,102.0,13.3,1505.3,323.4,-0.6,1.8,2470.416,13.33,0.017,227.3
2021-01-08T06:40:03,42.805,6.029,-0.005,0.002,-0.003,108.0,110.0,103.0,13.4,1505.3,323.6,-0.7,1.8,2470.399,13.33,0.005,291.8
2021-01-08T06:43:03,42.805,6.029,0.0,0.004,0.021,105.0,109.0,103.0,13.3,1505.3,324.4,-0.7,1.8,2470.417,13.33,0.004,0.0
2021-01-08T06:46:03,42.805,6.029,-0.014,0.018,0.023,105.0,109.0,104.0,13.3,1505.3,326.7,-0.7,1.8,2470.397,13.33,0.022,322.1
2021-01-08T06:49:03,42.805,6.029,-0.038,-0.005,0.015,106.0,109.0,102.0,13.4,1505.3,325.5,-0.7,1.8,2470.394,13.33,0.038,262.5
2021-01-08T06:52:03,42.805,6.029,-0.03,0.005,0.027,104.0,108.0,103.0,13.4,1505.4,323.8,-0.7,1.8,2470.367,13.34,0.03,279.5
2021-01-08T06:55:03,42.805,6.029,-0.032,0.006,-0.005,106.0,109.0,103.0,13.4,1505.4,323.3,-0.7,1.8,2470.391,13.34,0.032,280.6
2021-01-08T06:58:03,42.805,6.029,-0.027,0.009,-0.002,105.0,109.0,102.0,13.4,1505.4,326.9,-0.7,1.9,2470.378,13.34,0.028,288.4
2021-01-08T07:04:03,42.805,6.029,-0.009,0.02,-0.028,104.0,107.0,103.0,13.3,1505.3,325.5,-0.7,1.8,2470.39,13.31,0.021,335.8
2021-01-08T07:07:03,42.805,6.029,-0.028,0.015,0.019,105.0,108.0,101.0,13.4,1505.3,327.7,-0.7,1.8,2470.393,13.32,0.031,298.2
2021-01-08T07:10:03,42.805,6.029,-0.005,-0.005,-0.002,106.0,109.0,102.0,13.4,1505.3,327.8,-0.7,1.8,2470.376,13.33,0.007,225.0
2021-01-08T07:13:03,42.805,6.029,0.022,-0.004,0.005,105.0,109.0,102.0,13.4,1505.3,328.1,-0.7,1.9,2470.415,13.33,0.022,100.3
2021-01-08T07:16:03,42.805,6.029,-0.034,0.004,0.022,105.0,110.0,102.0,13.4,1505.3,327.7,-0.7,1.8,2470.422,13.33,0.034,276.7
2021-01-08T07:19:03,42.805,6.029,-0.001,-0.012,-0.022,105.0,108.0,102.0,13.4,1505.3,327.7,-0.7,1.8,2470.387,13.33,0.012,184.8
2021-01-08T07:22:03,42.805,6.029,-0.024,0.017,0.028,105.0,109.0,102.0,13.3,1505.3,327.5,-0.7,1.8,2470.375,13.33,0.029,305.3
2021-01-08T07:25:03,42.805,6.029,-0.033,-0.002,-0.022,107.0,109.0,101.0,13.4,1505.3,324.9,-0.7,1.8,2470.373,13.33,0.033,266.5
2021-01-08T07:28:03,42.805,6.029,-0.034,-0.001,0.008,105.0,107.0,101.0,13.3,1505.3,326.7,-0.7,1.8,2470.423,13.33,0.034,268.3
2021-01-08T07:31:03,42.805,6.029,-0.007,0.013,0.015,104.0,107.0,101.0,13.3,1505.3,323.7,-0.6,1.8,2470.412,13.33,0.014,331.7
2021-01-08T07:34:03,42.805,6.029,-0.024,0.014,0.032,105.0,107.0,101.0,13.3,1505.3,325.1,-0.7,1.8,2470.378,13.33,0.027,300.3
2021-01-08T07:37:03,42.805,6.029,0.001,0.006,0.035,104.0,109.0,101.0,13.4,1505.3,325.0,-0.7,1.8,2470.387,13.33,0.006,9.5
2021-01-08T07:40:03,42.805,6.029,-0.022,-0.024,-0.012,109.0,111.0,101.0,13.4,1505.3,326.8,-0.7,1.8,2470.392,13.33,0.032,222.5
2021-01-08T07:43:03,42.805,6.029,-0.03,0.009,0.016,103.0,108.0,102.0,13.3,1505.3,327.2,-0.7,1.8,2470.37,13.33,0.031,286.7
2021-01-08T07:46:03,42.805,6.029,-0.013,0.021,0.014,104.0,107.0,101.0,13.3,1505.3,323.2,-0.7,1.8,2470.402,13.33,0.024,328.2
2021-01-08T07:49:03,42.805,6.029,0.004,0.0,0.015,103.0,108.0,101.0,13.4,1505.3,325.8,-0.7,1.8,2470.391,13.33,0.004,90.0
2021-01-08T07:52:03,42.805,6.029,-0.012,0.0,-0.028,104.0,106.0,100.0,13.3,1505.3,324.0,-0.7,1.8,2470.386,13.33,0.012,270.0
2021-01-08T07:55:03,42.805,6.029,-0.014,0.021,-0.012,102.0,107.0,100.0,13.4,1505.3,325.2,-0.7,1.8,2470.337,13.33,0.025,326.3
2021-01-08T07:58:03,42.805,6.029,-0.028,0.012,-0.021,103.0,107.0,101.0,13.3,1505.3,326.9,-0.7,1.8,2470.348,13.33,0.03,293.2
2021-01-08T08:04:03,42.805,6.029,-0.024,0.002,0.005,103.0,108.0,100.0,13.4,1505.3,328.1,-0.7,1.8,2470.381,13.31,0.024,274.8
2021-01-08T08:07:03,42.805,6.029,-0.011,0.015,0.001,101.0,108.0,101.0,13.4,1505.3,326.0,-0.7,1.8,2470.364,13.32,0.018,323.7
2021-01-08T08:10:03,42.805,6.029,-0.009,0.0,-0.019,104.0,107.0,100.0,13.4,1505.3,325.2,-0.7,1.8,2470.379,13.32,0.009,270.0
2021-01-08T08:13:03,42.805,6.029,0.0,0.008,-0.01,103.0,107.0,100.0,13.3,1505.3,325.8,-0.7,1.8,2470.408,13.33,0.008,0.0
2021-01-08T08:16:03,42.805,6.029,-0.029,-0.003,-0.012,102.0,107.0,101.0,13.4,1505.3,325.0,-0.7,1.8,2470.391,13.33,0.029,264.1
2021-01-08T08:19:03,42.805,6.029,-0.004,0.005,-0.029,101.0,106.0,101.0,13.4,1505.3,323.7,-0.7,1.8,2470.373,13.33,0.006,321.3
2021-01-08T08:22:03,42.805,6.029,-0.015,0.001,0.019,103.0,107.0,99.0,13.4,1505.3,323.0,-0.7,1.8,2470.411,13.33,0.015,273.8
2021-01-08T08:25:03,42.805,6.029,0.004,0.016,0.006,101.0,108.0,99.0,13.4,1505.3,328.1,-0.7,1.8,2470.385,13.33,0.016,14.0
2021-01-08T08:28:03,42.805,6.029,-0.033,0.016,-0.027,102.0,108.0,99.0,13.3,1505.3,325.2,-0.7,1.8,2470.383,13.33,0.036,295.9
2021-01-08T08:31:03,42.805,6.029,-0.023,-0.005,-0.002,104.0,106.0,100.0,13.3,1505.3,323.4,-0.7,1.8,2470.356,13.33,0.023,257.7
2021-01-08T08:34:03,42.805,6.029,-0.021,0.002,-0.001,104.0,107.0,100.0,13.4,1505.3,326.8,-0.7,1.8,2470.393,13.33,0.021,275.4
2021-01-08T08:37:03,42.805,6.029,-0.012,0.004,-0.007,102.0,107.0,100.0,13.4,1505.3,325.2,-0.7,1.8,2470.349,13.33,0.012,288.4
2021-01-08T08:40:03,42.805,6.029,-0.018,-0.004,-0.021,102.0,106.0,101.0,13.4,1505.3,325.9,-0.7,1.8,2470.363,13.33,0.018,257.5
2021-01-08T08:43:03,42.805,6.029,0.016,0.019,0.019,103.0,105.0,100.0,13.4,1505.3,326.4,-0.7,1.8,2470.341,13.33,0.024,40.1
2021-01-08T08:46:03,42.805,6.029,-0.019,0.0,-0.001,103.0,107.0,100.0,13.3,1505.3,325.9,-0.7,1.8,2470.374,13.33,0.019,270.0
2021-01-08T08:49:03,42.805,6.029,-0.027,-0.007,-0.004,102.0,106.0,100.0,13.4,1505.3,326.7,-0.7,1.8,2470.359,13.33,0.027,255.5
2021-01-08T08:52:03,42.805,6.029,-0.005,0.003,0.025,102.0,106.0,101.0,13.3,1505.3,324.9,-0.7,1.8,2470.368,13.33,0.005,301.0
2021-01-08T08:55:03,42.805,6.029,-0.026,0.008,0.019,100.0,106.0,101.0,13.4,1505.3,326.9,-0.7,1.8,2470.351,13.33,0.027,287.1
2021-01-08T08:58:03,42.805,6.029,-0.011,-0.005,-0.007,103.0,107.0,100.0,13.4,1505.3,326.4,-0.7,1.8,2470.432,13.33,0.012,245.6
2021-01-08T09:04:03,42.805,6.029,-0.015,0.029,-0.01,102.0,106.0,100.0,13.4,1505.3,326.7,-0.7,1.8,2470.392,13.31,0.032,332.6
2021-01-08T09:07:03,42.805,6.029,-0.037,0.016,0.002,103.0,107.0,100.0,13.4,1505.3,326.4,-0.7,1.8,2470.357,13.32,0.04,293.4
2021-01-08T09:10:03,42.805,6.029,-0.032,0.005,0.017,101.0,107.0,101.0,13.3,1505.3,322.7,-0.7,1.8,2470.392,13.32,0.032,278.9
2021-01-08T09:13:03,42.805,6.029,0.004,-0.01,0.02,102.0,106.0,100.0,13.3,1505.3,326.5,-0.7,1.8,2470.336,13.33,0.01,158.2
2021-01-08T09:16:03,42.805,6.029,-0.013,0.016,-0.011,102.0,105.0,101.0,13.4,1505.3,325.9,-0.7,1.8,2470.361,13.33,0.02,320.9
2021-01-08T09:19:03,42.805,6.029,0.004,0.0,0.022,101.0,106.0,100.0,13.3,1505.3,324.0,-0.7,1.9,2470.324,13.33,0.004,90.0
2021-01-08T09:22:03,42.805,6.029,-0.022,0.019,0.004,102.0,106.0,100.0,13.4,1505.3,326.6,-0.7,1.8,2470.36,13.33,0.029,310.8
2021-01-08T09:25:03,42.805,6.029,-0.024,0.0,0.003,102.0,106.0,100.0,13.3,1505.3,323.9,-0.7,1.8,2470.384,13.33,0.024,270.0
2021-01-08T09:28:03,42.805,6.029,-0.019,0.003,-0.015,102.0,106.0,100.0,13.3,1505.3,326.0,-0.7,1.8,2470.384,13.33,0.019,279.0
2021-01-08T09:31:03,42.805,6.029,-0.031,0.008,0.011,102.0,106.0,100.0,13.4,1505.3,326.4,-0.7,1.8,2470.391,13.33,0.032,284.5
2021-01-08T09:34:03,42.805,6.029,0.001,0.016,0.015,102.0,106.0,99.0,13.3,1505.3,326.6,-0.7,1.8,2470.374,13.33,0.016,3.6
2021-01-08T09:37:03,42.805,6.029,-0.06,0.005,-0.001,101.0,106.0,100.0,13.4,1505.3,324.7,-0.7,1.8,2470.402,13.33,0.06,274.8
2021-01-08T09:40:03,42.805,6.029,-0.041,0.033,0.017,101.0,106.0,100.0,13.4,1505.3,324.7,-0.7,1.8,2470.37,13.33,0.052,308.8
2021-01-08T09:43:03,42.805,6.029,-0.01,0.0,-0.025,103.0,106.0,100.0,13.4,1505.3,324.5,-0.7,1.8,2470.338,13.33,0.01,270.0
2021-01-08T09:46:03,42.805,6.029,-0.023,0.014,0.008,101.0,107.0,100.0,13.3,1505.3,323.8,-0.7,1.8,2470.369,13.33,0.026,301.3
2021-01-08T09:49:03,42.805,6.029,-0.025,-0.007,0.03,101.0,106.0,101.0,13.4,1505.3,325.2,-0.7,1.8,2470.365,13.33,0.025,254.4
2021-01-08T09:52:03,42.805,6.029,-0.029,0.028,0.025,101.0,107.0,100.0,13.3,1505.3,325.9,-0.7,1.8,2470.378,13.33,0.04,314.0
2021-01-08T09:55:03,42.805,6.029,-0.032,-0.008,-0.011,102.0,106.0,99.0,13.4,1505.3,325.9,-0.7,1.8,2470.371,13.33,0.032,256.0
2021-01-08T09:58:03,42.805,6.029,-0.004,0.003,-0.019,104.0,107.0,100.0,13.3,1505.3,326.4,-0.7,1.8,2470.373,13.33,0.005,306.9
2021-01-08T10:04:03,42.805,6.029,-0.021,-0.005,-0.036,101.0,106.0,101.0,13.4,1505.3,325.1,-0.7,1.8,2470.409,13.31,0.021,256.6